Location: B�hl
(48.6968°N, 8.1352°E)
Time: 02:47:21
(UTC+00:00)

Cosmos 2278 Rocket - Pass Details

Date: 08 March 2021
Orbit: 841 x 845 km, 71.0° (Epoch: 16 April)

Event Time Altitude Azimuth Distance (km) Brightness Sun altitude
Rises 19:10:30 0° 331° (NNW) 3,415 6.0 -18.5°
Reaches altitude 10° 19:12:57 10° 331° (NNW) 2,476 5.2 -18.9°
Maximum altitude 19:18:39 84° 244° (WSW) 855 2.2 -19.8°
Enters shadow 19:22:13 24° 158° (SSE) 1,688 3.4 -20.4°
